Change the Weather History Date:

Saturday, October 27, 2012

  Actual Average Record
Temperature  
Mean Temperature 64 °F -  
Max Temperature 72 °F 70 °F - ()
Min Temperature 57 °F 45 °F - ()
Growing Degree Days 14 (Base 50)    
Moisture  
Dew Point 38 °F    
Average Humidity 34    
Maximum Humidity 48    
Minimum Humidity 17    
Precipitation  
Precipitation 0.00 in 0.02 in - ()
Sea Level Pressure  
Sea Level Pressure 29.89 in    
Wind  
Wind Speed 8 mph ()    
Max Wind Speed 24 mph    
Max Gust Speed 16 mph    
Visibility 7.6 miles    
Events      
T = Trace of Precipitation, MM = Missing Value Source: Averaged Metar Reports

Daily Weather History Graph

Daily Weather History Graph

Search for Another Location

Airport or City:

Trip Planner

Search our weather history database for the weather conditions in past years. The results will help you decide how hot, cold, wet, or windy it might be!

Date:

Astronomy

Oct. 27, 2012 Rise Set
Actual Time 6:39 AM WET 5:43 PM WET
Civil Twilight 6:14 AM WET 6:08 PM WET
Nautical Twilight 5:45 AM WET 6:36 PM WET
Astronomical Twilight 5:17 AM WET 7:04 PM WET
Moon 4:17 PM WET (10/27) 4:27 AM WET (10/27)
Length of Visible Light 11h 53m
Length of Day
11h 04m
Waxing Gibbous, 95% of the Moon is Illuminated
Oct 27
Waxing Gibbous
Oct 29
Full
Nov 7
Last Quarter
Nov 13
New
Nov 20
First Quarter

Hourly Weather History & Observations

Time (WET) Temp. Dew Point Humidity Pressure Visibility Wind Dir Wind Speed Gust Speed Precip Events Conditions
12:00 AM 63 °F 41 °F 32%  in 12 mi West 9.2 mph - -   Scattered Clouds
12:00 AM 62.6 °F 41.0 °F 45% 29.89 in 6.2 mi West 9.2 mph - N/A   Partly Cloudy
6:00 AM 61 °F 39 °F 32%  in 12 mi WSW 6.9 mph - -   Scattered Clouds
6:00 AM 60.8 °F 39.2 °F 45% 29.86 in 6.2 mi WSW 6.9 mph - N/A   Partly Cloudy
7:00 AM 60.8 °F 41.0 °F 48% 29.89 in 6.2 mi West 5.8 mph - N/A   Partly Cloudy
8:00 AM 64.4 °F 39.2 °F 40% 29.89 in 6.2 mi WNW 4.6 mph - N/A   Partly Cloudy
9:00 AM 65 °F 41 °F 30%  in 12 mi SE 3.5 mph - -   Scattered Clouds
9:00 AM 66.2 °F 41.0 °F 40% 29.92 in 6.2 mi SE 3.5 mph - N/A   Mostly Cloudy
10:00 AM 66.2 °F 41.0 °F 40% 29.89 in 6.2 mi ENE 2.3 mph - N/A   Mostly Cloudy
11:00 AM 68.0 °F 39.2 °F 35% 29.89 in 6.2 mi North 1.2 mph - N/A   Mostly Cloudy
12:00 PM 69 °F 39 °F 22%  in 12 mi North 4.6 mph - -   Scattered Clouds
12:00 PM 69.8 °F 39.2 °F 33% 29.89 in 6.2 mi North 4.6 mph 16.1 mph N/A   Mostly Cloudy
1:00 PM 69.8 °F 39.2 °F 33% 29.86 in 6.2 mi ESE 3.5 mph - N/A   Mostly Cloudy
2:00 PM 69.8 °F 37.4 °F 31% 29.86 in 6.2 mi ESE 2.3 mph - N/A   Mostly Cloudy
3:00 PM 71.6 °F 35.6 °F 27% 29.86 in 6.2 mi NNW 6.9 mph - N/A   Mostly Cloudy
4:00 PM 71.6 °F 33.8 °F 25% 29.86 in 6.2 mi NW 15.0 mph - N/A   Partly Cloudy
5:00 PM 69.8 °F 32.0 °F 25% 29.86 in 6.2 mi WNW 24.2 mph - N/A   Partly Cloudy
6:00 PM 67 °F 32 °F 17%  in 12 mi WNW 20.7 mph - -   Scattered Clouds
6:00 PM 66.2 °F 32.0 °F 28% 29.86 in 6.2 mi WNW 20.7 mph - N/A   Partly Cloudy
7:00 PM 64.4 °F 35.6 °F 34% 29.89 in 6.2 mi WNW 19.6 mph - N/A   Partly Cloudy
8:00 PM 62.6 °F 39.2 °F 42% 29.89 in 6.2 mi WNW 19.6 mph - N/A   Partly Cloudy
9:00 PM 62 °F 35 °F 24%  in 12 mi WNW 24.2 mph - -   Scattered Clouds
9:00 PM 62.6 °F 35.6 °F 37% 29.92 in 6.2 mi WNW 24.2 mph - N/A   Partly Cloudy
10:00 PM 60.8 °F 35.6 °F 39% 29.92 in 6.2 mi WNW 19.6 mph - N/A   Partly Cloudy
11:00 PM 60.8 °F 35.6 °F 39% 29.95 in 6.2 mi WNW 16.1 mph - N/A   Partly Cloudy